[[{"header":{"parameterUnit":"m.s-1","parameterCategory":1,"la1":30.2991,"la2":30.254,"lo1":-89.0895,"lo2":-89.0444,"dy":0.0017,"dx":0.0017,"nx":28,"ny":28,"refTime":"2024-07-04T09:00:00:Z","depth":0,"parameterNumber":2,"parameterNumberName":"U-component_of_WINDS"},"data":[0,0,0,0,0,0,0,0,0,0,0,0,0,0,0,0,0,0,0,0,0,0,0,0,0,0,0,0,0,0,0,0,0,0,0,0,0,0,0,0,0,0,0,0,0,0,0,0,0,0,0,0,0,0,0,0,0,0,1.7123,1.7123,0,1.7121,1.7121,1.7121,1.704,1.7038,1.7036,1.7034,1.7035,1.7037,1.7039,0,0,0,0,0,0,0,0,0,0,0,0,0,1.7059,1.7061,1.7123,1.7123,1.7123,1.7121,1.7121,1.7121,1.7041,1.7038,1.7036,1.7033,1.7034,1.7037,1.7039,0,0,0,0,0,0,0,0,0,0,0,0,0,1.7075,1.7061,1.7123,1.7083,1.7079,1.7121,1.7121,1.7121,1.7041,1.7038,1.7035,1.7032,1.7034,1.7037,1.7039,1.7121,0,0,1.7049,1.705,0,0,0,0,0,0,0,0,1.7074,1.7078,1.7089,1.7086,1.7082,1.7078,1.7099,1.7121,1.7042,1.7056,1.7034,1.7031,1.7052,1.7053,1.706,1.7121,1.7121,1.7049,1.7051,1.7052,1.7053,0,0,0,0,0,0,0,1.7073,1.7077,1.7122,1.7089,1.7085,1.7065,1.7064,1.7103,1.7072,1.7054,1.7049,1.7049,1.7049,1.7057,1.7059,1.7121,1.7049,1.7051,1.7053,1.7054,1.7246,1.7249,0,0,0,0,0,0,1.7077,1.7077,1.7122,1.7122,1.707,1.7069,1.7068,1.7082,1.7071,1.7066,1.7052,1.7045,1.7054,1.7056,1.7059,1.7152,1.7052,1.7055,1.7056,1.7243,1.7247,1.725,0,0,0,0,0,0,1.7076,1.7082,1.7123,1.7098,1.7102,1.7073,1.7091,1.7084,1.7091,1.7069,1.7063,1.7065,1.7051,1.7055,1.7105,1.7151,1.7056,1.7059,1.7239,1.7244,1.7249,1.7339,0,0,0,0,0,0,1.7075,1.7082,1.7113,1.7099,1.7103,1.7169,1.7093,1.7086,1.7096,1.7088,1.708,1.7076,1.7049,1.7101,1.7108,1.7153,1.7061,1.7235,1.7241,1.7247,1.7332,1.7346,1.7359,0,0,0,0,0,1.7073,1.7139,1.7115,1.7121,1.714,1.7171,1.7174,1.7141,1.71,1.7131,1.7116,1.7076,1.7145,1.7107,1.7114,1.7161,1.7232,1.7239,1.7247,1.7326,1.7343,1.7358,0,0,0,0,0,0,1.7161,1.7137,1.7109,1.7173,1.7175,1.7158,1.7195,1.7161,1.7175,1.7166,1.7126,1.7125,1.7181,1.7176,1.7135,1.7238,1.7181,1.719,1.7239,1.7255,1.7269,1.7268,1.7063,0,0,0,0,0,1.7187,1.7214,1.7192,1.725,1.7252,1.7224,1.7236,1.721,1.7211,1.7211,1.72,1.7203,1.7224,1.724,1.7259,1.7331,1.7327,1.7366,1.738,1.7391,1.7399,1.7435,1.7451,1.7275,1.7275,1.7275,0,0,1.7243,1.7233,1.7253,1.7268,1.7266,1.7294,1.7225,1.7259,1.7279,1.7217,1.7262,1.7255,1.7255,1.7316,1.7342,1.7313,1.7447,1.74,1.741,1.7411,1.7444,1.7461,1.7476,1.728,1.7279,1.7278,0,0,1.7358,1.7354,1.7401,1.74,1.7397,1.7377,1.7389,1.7377,1.7369,1.7414,1.7367,1.7392,1.7431,1.7432,1.7438,1.7552,1.7515,1.7559,1.763,1.7665,1.7679,1.7691,1.773,1.7745,1.7568,1.7568,1.7568,0,1.7427,1.7467,1.743,1.7465,1.7473,1.7416,1.7464,1.7465,1.747,1.7476,1.7444,1.749,1.7486,1.7545,1.7573,1.758,1.7592,1.756,1.768,1.7692,1.7702,1.7739,1.7754,1.7573,1.7573,1.7572,1.7572,0,1.7552,1.7581,1.7619,1.7623,1.7635,1.7676,1.7645,1.7662,1.7635,1.7619,1.7665,1.7659,1.7674,1.7687,1.7662,1.7743,1.7724,1.7687,1.7629,1.7725,1.7759,1.7773,1.7581,1.7579,1.7577,1.7576,0,0,1.7722,1.7703,1.7718,1.7718,1.771,1.7732,1.7771,1.7785,1.7799,1.7804,1.7835,1.7869,1.7833,1.784,1.7814,1.7846,1.7934,1.7804,1.7803,1.7827,1.8021,1.8048,1.8065,1.791,1.7913,1.7915,1.802,0,1.7832,1.7896,1.7862,1.7931,1.7955,1.7902,1.7935,1.7934,1.792,1.794,1.7925,1.7948,1.79,1.7904,1.7932,1.7917,1.7972,1.791,1.7938,1.794,1.7938,1.8083,1.8112,1.8212,1.8033,1.8036,1.8037,0,1.7969,1.7977,1.8047,1.8033,1.8042,1.8073,1.8082,1.8102,1.8099,1.8087,1.8094,1.806,1.8097,1.8041,1.8091,1.8048,1.8058,1.8053,1.8056,1.8056,1.7993,1.8086,1.8243,1.8258,1.8058,1.8056,1.8055,0,1.8083,1.8113,1.8158,1.816,1.8145,1.8167,1.8162,1.8157,1.8167,1.8175,1.8181,1.8195,1.8202,1.8214,1.8185,1.8146,1.8238,1.818,1.8228,1.8229,1.8249,1.8248,1.8409,1.8258,1.8258,1.8258,1.8257,0,1.8208,1.8253,1.8209,1.8236,1.8284,1.8246,1.8295,1.8284,1.828,1.8304,1.826,1.8284,1.8245,1.8266,1.8244,1.8288,1.8292,1.8282,1.8276,1.8286,1.8287,1.829,1.8282,1.8262,1.8261,1.826,1.8259,0,1.8344,1.8317,1.8362,1.8343,1.834,1.8376,1.836,1.8385,1.8367,1.8399,1.8405,1.8377,1.8399,1.8371,1.8392,1.8376,1.8436,1.842,1.8436,1.8431,1.848,1.8475,1.8648,1.8668,1.8506,1.8508,1.8509,0,1.8425,1.8458,1.8442,1.8455,1.8452,1.8473,1.8482,1.8446,1.8458,1.8457,1.8482,1.8499,1.8511,1.8548,1.8531,1.8545,1.8528,1.8588,1.853,1.8538,1.8527,1.8525,1.8527,1.8599,1.8601,1.8603,1.8604,0,1.8571,1.8555,1.8569,1.8579,1.8591,1.8597,1.86,1.8613,1.8575,1.859,1.8611,1.862,1.8639,1.8657,1.8667,1.8662,1.8627,1.8622,1.8634,1.8644,1.8651,1.8646,1.8466,1.8618,1.8617,1.8616,1.8615,1.8615,1.868,1.8706,1.8698,1.8715,1.8713,1.8717,1.8738,1.8723,1.8739,1.8751,1.8729,1.8755,1.8751,1.8759,1.8759,1.8779,1.8753,1.8771,1.8775,1.8779,1.8786,1.8649,1.8781,1.878,1.878,1.878,1.8779,0,1.8822,1.8814,1.883,1.8834,1.8848,1.8813,1.8814,1.8827,1.885,1.8849,1.8861,1.8884,1.8901,1.8885,1.8898,1.8917,1.8901,1.8922,1.8919,1.8919,1.8809,1.8797,1.8934,1.8934,1.8934,1.8934,1.8934,1.8934,1.8897,1.8938,1.8921,1.896,1.8952,1.8976,1.8979,1.8982,1.8981,1.9008,1.9021,1.901,1.9002,1.9014,1.9028,1.9023,1.9029,1.9055,1.9044,1.8942,1.8927,1.8912,1.89,1.9058,1.9058,1.9152,1.9153,1.9154]},{"header":{"parameterUnit":"m.s-1","parameterCategory":1,"la1":30.2991,"la2":30.254,"lo1":-89.0895,"lo2":-89.0444,"dy":0.0017,"dx":0.0017,"nx":28,"ny":28,"refTime":"2024-07-04T09:00:00:Z","depth":0,"parameterNumber":3,"parameterNumberName":"V-component_of_WINDS"},"data":[0,0,0,0,0,0,0,0,0,0,0,0,0,0,0,0,0,0,0,0,0,0,0,0,0,0,0,0,0,0,0,0,0,0,0,0,0,0,0,0,0,0,0,0,0,0,0,0,0,0,0,0,0,0,0,0,0,0,2.7518,2.7519,0,2.7651,2.7652,2.7654,2.7638,2.7636,2.7634,2.7632,2.7767,2.7772,2.7778,0,0,0,0,0,0,0,0,0,0,0,0,0,2.7247,2.7252,2.7517,2.7519,2.7521,2.7651,2.7652,2.7654,2.7639,2.7636,2.7634,2.7631,2.7765,2.7772,2.7778,0,0,0,0,0,0,0,0,0,0,0,0,0,2.7371,2.7254,2.7517,2.7529,2.7531,2.765,2.7652,2.7655,2.7639,2.7636,2.7633,2.763,2.7763,2.7771,2.7779,2.7895,0,0,2.7805,2.7808,0,0,0,0,0,0,0,0,2.7364,2.7381,2.7525,2.7528,2.7531,2.7625,2.7607,2.7735,2.764,2.7598,2.7632,2.7628,2.7722,2.7734,2.7765,2.7901,2.7907,2.7805,2.7811,2.7814,2.7816,0,0,0,0,0,0,0,2.7355,2.7375,2.757,2.7528,2.7531,2.7527,2.7541,2.7631,2.7676,2.7602,2.7601,2.7617,2.7723,2.7757,2.7769,2.7909,2.7805,2.7813,2.7818,2.7821,2.8144,2.8148,0,0,0,0,0,0,2.7344,2.7368,2.7566,2.7574,2.7438,2.7534,2.755,2.7598,2.7675,2.7684,2.762,2.7616,2.7745,2.7759,2.7773,2.7913,2.7814,2.7822,2.7827,2.8141,2.8145,2.8149,0,0,0,0,0,0,2.7339,2.7362,2.7561,2.7471,2.7496,2.7542,2.7596,2.7602,2.7637,2.7689,2.7697,2.7647,2.7743,2.7761,2.7864,2.7917,2.7826,2.7833,2.8137,2.8142,2.8147,2.8193,0,0,0,0,0,0,2.7331,2.736,2.7405,2.7472,2.7501,2.7651,2.76,2.7607,2.7651,2.7648,2.7716,2.7725,2.7742,2.7852,2.7873,2.7927,2.784,2.8132,2.8139,2.8145,2.8187,2.82,2.821,0,0,0,0,0,2.7321,2.7413,2.7408,2.7432,2.7558,2.7654,2.767,2.7688,2.7656,2.7701,2.7734,2.7722,2.7908,2.7863,2.7886,2.7944,2.8129,2.8137,2.8145,2.8182,2.8197,2.821,0,0,0,0,0,0,2.7351,2.7422,2.7417,2.7533,2.7587,2.7651,2.7708,2.7704,2.7768,2.7762,2.7781,2.7797,2.7901,2.7932,2.7881,2.8059,2.8014,2.8027,2.8034,2.8049,2.806,2.805,2.7847,0,0,0,0,0,2.7371,2.7443,2.7501,2.7598,2.7625,2.7662,2.7704,2.7714,2.7771,2.7794,2.7834,2.789,2.796,2.8006,2.8074,2.8192,2.8206,2.8243,2.8254,2.8263,2.8274,2.8338,2.8354,2.8175,2.8175,2.8175,0,0,2.7412,2.746,2.7505,2.7605,2.7648,2.7722,2.7682,2.7761,2.7816,2.7806,2.7905,2.7937,2.8,2.811,2.8161,2.814,2.8327,2.8274,2.828,2.8287,2.8348,2.8365,2.838,2.8181,2.818,2.8179,0,0,2.7526,2.757,2.7655,2.77,2.7766,2.7789,2.781,2.7874,2.7895,2.7996,2.7989,2.8054,2.8175,2.822,2.8259,2.8388,2.838,2.841,2.847,2.8531,2.8545,2.8558,2.8604,2.862,2.8421,2.8421,2.8421,0,2.757,2.7682,2.7699,2.778,2.7824,2.7818,2.7904,2.7945,2.803,2.806,2.8035,2.8187,2.8229,2.8349,2.8381,2.8413,2.8436,2.8402,2.8542,2.8555,2.8567,2.8611,2.8628,2.8424,2.8424,2.8423,2.8423,0,2.7731,2.7809,2.7869,2.7952,2.8002,2.8085,2.8114,2.8163,2.8168,2.8194,2.8296,2.8346,2.8423,2.8452,2.8458,2.8573,2.8558,2.8538,2.8493,2.8587,2.8628,2.8645,2.8429,2.8428,2.8427,2.8426,0,0,2.7868,2.7959,2.7981,2.8018,2.809,2.8149,2.8231,2.8307,2.8349,2.8407,2.8475,2.8578,2.8559,2.8603,2.8613,2.8667,2.8766,2.864,2.8642,2.8661,2.8896,2.891,2.893,2.8761,2.8764,2.8767,2.889,0,2.7989,2.8134,2.8153,2.8282,2.8352,2.8347,2.8419,2.847,2.8496,2.856,2.8588,2.8661,2.8631,2.8657,2.871,2.8743,2.8813,2.8734,2.8824,2.8827,2.8808,2.8951,2.8968,2.9082,2.8906,2.8909,2.8911,0,2.8149,2.8212,2.8348,2.841,2.844,2.8504,2.8575,2.8636,2.8694,2.8709,2.8758,2.8761,2.8844,2.8796,2.8911,2.8856,2.8894,2.8915,2.892,2.8929,2.8875,2.8964,2.9119,2.9136,2.8937,2.8935,2.8933,0,2.8234,2.8353,2.845,2.8482,2.8556,2.8601,2.8634,2.8688,2.8733,2.8794,2.8823,2.8894,2.8932,2.8986,2.9008,2.8971,2.9121,2.9075,2.9135,2.9135,2.9167,2.9165,2.933,2.9192,2.9192,2.9191,2.9191,0,2.8367,2.845,2.8489,2.8549,2.8641,2.8661,2.8752,2.8783,2.8831,2.8896,2.8896,2.8956,2.8981,2.9045,2.9063,2.9155,2.9172,2.9186,2.919,2.9186,2.9184,2.9211,2.9203,2.9196,2.9195,2.9194,2.9193,0,2.8478,2.8508,2.8612,2.8674,2.8691,2.8757,2.8809,2.8866,2.8892,2.8973,2.8994,2.9033,2.9109,2.9136,2.9227,2.9239,2.9345,2.9342,2.9326,2.9327,2.9386,2.9379,2.9574,2.96,2.9445,2.9446,2.9447,0,2.8561,2.8625,2.8693,2.8737,2.8771,2.8841,2.8887,2.8908,2.8955,2.9025,2.9073,2.9148,2.921,2.933,2.9367,2.9436,2.9435,2.9498,2.9445,2.944,2.9435,2.9431,2.9437,2.9508,2.9509,2.9511,2.9512,0,2.8704,2.8715,2.8781,2.8852,2.8906,2.8962,2.9017,2.9052,2.9081,2.9134,2.9212,2.9259,2.9352,2.9427,2.9498,2.9531,2.9526,2.9528,2.9546,2.9543,2.953,2.9537,2.9352,2.9524,2.9522,2.9522,2.9521,2.952,2.8803,2.8859,2.8916,2.8989,2.9032,2.9083,2.914,2.9172,2.9237,2.9315,2.9324,2.9407,2.9462,2.9557,2.9593,2.9658,2.964,2.9666,2.9672,2.9678,2.9682,2.952,2.9671,2.9671,2.967,2.967,2.967,0,2.8946,2.8982,2.9049,2.9125,2.9182,2.9173,2.9233,2.9281,2.9355,2.9407,2.9467,2.9555,2.9627,2.9669,2.9741,2.9784,2.9784,2.9802,2.9799,2.9807,2.9694,2.9672,2.9801,2.9801,2.9801,2.9801,2.9801,2.9801,2.9027,2.9121,2.9139,2.9255,2.929,2.9372,2.9407,2.9454,2.9495,2.9594,2.9654,2.9681,2.9729,2.9804,2.9869,2.9879,2.9905,2.9925,2.9934,2.9828,2.9815,2.9802,2.9781,2.9931,2.9931,3.0041,3.0042,3.0043]}]]